Location: Austin
(30.3000°N, 97.7500°W)
Time: 12:15:41
(UTC-05:00)

PAYLOAD B - Pass Details

Date: 01 August 2024
Orbit: 848 x 870 km, 99.0° (Epoch: 14 June)

Event Time Altitude Azimuth Distance (km) Brightness Sun altitude
Exits shadow 20:59:46 - 156° (SSE) 3,342 6.8 -7.8°
Reaches altitude 10° 21:02:00 10° 153° (SSE) 2,463 6.2 -8.3°
Maximum altitude 21:07:23 61° 74° (ENE) 956 4.3 -9.3°
Drops below altitude 10° 21:12:47 10° 355° (N) 2,482 7.1 -10.4°
Sets 21:15:11 0° 352° (N) 3,424 7.9 -10.8°
